• Processing (Info)

  • MPEC 2023-F86 : 2023 FN2

    The following Minor Planet Electronic Circular may be linked-to from your own Web pages, but must not otherwise be redistributed electronically.

    A form allowing access to any MPEC is at the bottom of this page.


    Read MPEC 2023-F85 Read MPEC 2023-F87


    M.P.E.C. 2023-F86                                Issued 2023 March 21, 11:52 UT
    
         The Minor Planet Electronic Circulars contain information on unusual
             minor planets, routine data on comets and natural satellites,
             and occasional editorial announcements.  They are published
        on behalf of Division F of the International Astronomical Union by the
              Minor Planet Center, Smithsonian Astrophysical Observatory,
                              Cambridge, MA 02138, U.S.A.
    			  
                 Prepared using the Tamkin Foundation Computer Network
    
                                  MPC@CFA.HARVARD.EDU
                URL https://www.minorplanetcenter.net/    ISSN 1523-6714
    
                                    2023 FN2                                 
    
    
    Observations:
         K23F02N* C2023 03 19.38281511 26 42.198-10 40 56.25         21.69wUEF086F52
         K23F02N  C2023 03 19.39423611 26 43.868-10 41 06.87         21.52wUEF086F52
         K23F02N  C2023 03 19.40567811 26 45.542-10 41 17.55         21.29wUEF086F52
         K23F02N  C2023 03 19.41712011 26 47.223-10 41 28.18         21.34wUEF086F52
         K23F02N  C2023 03 19.54018911 27 05.406-10 43 18.41         21.11GVEF086F52
         K23F02N  C2023 03 19.54082011 27 05.501-10 43 18.94         21.20GVEF086F52
         K23F02N  C2023 03 19.54146811 27 05.595-10 43 19.48         21.14GVEF086F52
         K23F02N  C2023 03 19.54209911 27 05.700-10 43 20.07         21.36GVEF086F52
         K23F02N  C2023 03 19.54273011 27 05.786-10 43 20.63         21.28GVEF086F52
         K23F02N  C2023 03 19.54336111 27 05.880-10 43 21.18         21.18GVEF086F52
         K23F02N |C2023 03 20.12758 11 28 45.24 -10 51 24.7          21.5 VuEF086807
         K23F02N |C2023 03 20.13528 11 28 46.41 -10 51 31.9          21.1 VuEF086807
         K23F02N |C2023 03 20.14297 11 28 47.51 -10 51 38.9          21.1 VuEF086807
         K23F02N |C2023 03 21.25378 11 31 45.99 -11 07 23.1          21.1 GVEF086807
         K23F02N |C2023 03 21.26118 11 31 47.07 -11 07 28.9          21.2 GVEF086807
         K23F02N |C2023 03 21.26857 11 31 48.14 -11 07 34.9          21.2 GVEF086807
    
    Observer details:
    807 Cerro Tololo Observatory, La Serena.  Observers T. Linder, R. Holmes, L.
        Horn.  0.61-m f/6.5 Dall-Kirkham Astrograph + CCD, 1.00-m f/10.0
        astrograph + CCD.
    F52 Pan-STARRS 2, Haleakala.  Observers J. Bulger, T. Lowe, A. Schultz, I.
        Smith, K. Chambers, T. Dukes.  Measurers K. Chambers, S. Chastel, T. de
        Boer, J. Fairlamb, H. Gao, M. Huber, C.-C. Lin, E. Magnier, Y.
        Ramanjooloo, R. Wainscoat, R. Weryk.  1.8-m Ritchey-Chretien + CCD.
    
    Orbital elements:
    2023 FN2                                                 Earth MOID = 0.1587 AU
    Epoch 2023 Feb. 25.0 TT = JDT 2460000.5                 Veres                   
    M 359.43224              (2000.0)            P               Q                  
    n   0.25388916     Peri.  228.38374     -0.92795574     -0.37103427             
    a   2.4700549      Node   289.81001     +0.35207142     -0.84183342             
    e   0.5359410      Incl.    2.13782     +0.12224507     -0.39198222             
    P   3.88           H   24.13          G   0.15           U   8                  
    Residuals in seconds of arc
    230319 F52  0.0   0.1+    230319 F52  0.1-  0.0     230320 807  0.1-  0.2-
    230319 F52  0.0   0.1+    230319 F52  0.1+  0.0     230321 807  0.0   0.0
    230319 F52  0.0   0.0     230319 F52  0.1-  0.0     230321 807  0.1+  0.1+
    230319 F52  0.1+  0.1-    230319 F52  0.1-  0.0     230321 807  0.0   0.0
    230319 F52  0.0   0.0     230320 807  0.3-  0.2+
    230319 F52  0.0   0.0     230320 807  0.3+  0.1-
    
    Ephemeris:
    2023 FN2                 a,e,i = 2.47, 0.54, 2                   q = 1.1463
    Date    TT    R. A. (2000) Decl.     Delta      r    Elong.  Phase     V
    2023 02 19    10 00 23.2 +01 50 15   0.1640  1.1503   170.1     8.5    21.1
    ...
    2023 03 06    10 46 28.8 -05 53 25   0.1605  1.1490   167.3    10.9    21.1
    ...
    2023 03 14    11 11 12.0 -09 04 34   0.1691  1.1593   166.8    11.3    21.3
    ...
    2023 03 20    11 28 23.2 -10 49 48   0.1802  1.1718   166.8    11.2    21.4
    2023 03 21    11 31 06.2 -11 04 09   0.1824  1.1743   166.8    11.1    21.5
    2023 03 22    11 33 46.4 -11 17 37   0.1847  1.1768   166.9    11.1    21.5
    ...
    2023 03 28    11 48 50.8 -12 21 42   0.2010  1.1945   166.9    11.0    21.7
    ...
    2023 04 05    12 06 27.2 -13 10 32   0.2288  1.2235   166.2    11.3    22.1
    ...
    2023 04 20    12 33 05.7 -13 35 17   0.3000  1.2922   161.3    14.4    22.9
    
    M. P. C. Staff               (C) Copyright 2023 MPC           M.P.E.C. 2023-F86
    


    Read MPEC 2023-F85 Read MPEC 2023-F87


    MPEC number:

    Enter an MPEC number in one of the following forms:

    • 1997-B01 (the full form)
    • J97B01 (the packed version of the full form)
    • B01 (the abbreviated form)